CZ-6A DEB, 60662

Orbit data source: Space-Track

CZ-6A DEB, 60662 is space debris in LEO originally from a launch on Tue, 06 Aug 2024 UTC launched from the Taiyaun Space Center, China (TSC). Debris objects in space refer to the collection of defunct objects orbiting the Earth. Examples of debris include non-operational satellites, rocket bodies, and fragments generated from explosions, collisions, or faulty payload assembly.

Loading next visibility...
Identifier
60662, 2024-140BP
Orbit
LEO
Country
Flag of CNCN / PRC
Related business
Manufacturer
SAST
Mission
Spacecraft
Bus & Motor
Unknown
Mass
Unknown
Launch date (UTC)
2024-08-06 (2 years ago)
Launch vehicle
Unknown
Launch site
Taiyaun Space Center, China (TSC)
Object type
Payload
Rocket body
Debris
Shape & HBR
Unknown shape, 0.3 m
Radar Cross Section
Medium (>0.1 m² and <1 m²)

Expand to show TLE details & history
Last TLE update: 12 hours ago

TLE from 12 hours ago
0 CZ-6A DEB
1 60662U 24140BP  26171.35679470  .00000261  00000-0  13465-3 0  9990
2 60662  88.9704 273.1398 0093348 188.1097 171.8585 14.09881428 95871
Epoch: 2026-06-20T08:33Z
TLE epoch observation values (Epoch: 2026-06-20T08:33:47.062Z)
Latitude
0.00005°
Longitude
-123.87888°
Altitude
929.726 km
Speed
7.353 km/s
True Right ascension
18h 12m 33s
True Declination
0° 00' 00"
Sunlit
Object was in full shadow at epoch
Visualization orbit readout
Latitude
Unknown
Longitude
Unknown
Altitude
Unknown
Speed
Unknown
Apparent Right ascension
Unknown
Apparent Declination
Unknown
Sunlit
N/A
Visualization observer readout
Local Sidereal Time
07:23:52
Azimuth
Unknown
Elevation
Unknown
Doppler factor
Unknown
Orbital elements
Apogee altitude
924.279 km
Perigee altitude
789.207 km
Semi-major axis
7,234.88 km
Eccentricity
0.00933
Inclination
88.9704°
RAAN
273.1398°
Arg. of periapsis
188.1097°
True anomaly
172.00826°
Mean anomaly
171.8585°
Eccentric anomaly
171.93355°
Mean motion
3.52692 °/min
Orbital period
102.07 mins
BSTAR
0.00013465
Loading maneuver chart data...
Computing Atmospheric mass density...
Loading historical data...
Loading historical data...
Loading historical data...
Loading historical data...
Loading historical data...
Loading historical data...
Loading historical data...

Documentation

Showing up to 5 results
|